Miscellaneous Local Product
Issued by NWS Hastings, NE

Home | Current Version | Previous Version | Graphics & Text | Print | Product List | Glossary On
Versions: 1 2 3 4 5 6 7 8 9 10 11 12 13 14 15 16 17 18 19 20 21 22 23 24 25 26 27 28 29 30 31 32 33 34 35 36 37 38 39 40 41 42 43 44 45 46 47 48 49 50
552
AXUS43 KGID 190502
MISGRI

GID CWA HOURLY WEATHER ROUNDUP
NATIONAL WEATHER SERVICE HASTINGS NE
1100 PM CST WED JAN 18 2017

NOTE: "FAIR" INDICATES FEW OR NO CLOUDS BELOW 12,000 FEET WITH NO
SIGNIFICANT WEATHER AND/OR OBSTRUCTIONS TO VISIBILITY.

...SOUTH CENTRAL NEBRASKA...

CITY           SKY/WX    TMP DP  RH WIND       PRES   REMARKS
GRAND ISLAND   CLEAR     37  35  92 S12       29.81S WCI  29
HASTINGS       PTCLDY    38  34  85 S8        29.82F WCI  32
KEARNEY        CLOUDY    36  34  93 S8        29.79S WCI  29
ORD            CLEAR     34  32  92 SE6       29.76F WCI  29
YORK           PTCLDY    39  36  87 S14       29.83F WCI  31
AURORA         CLEAR     38  34  87 S9        29.82S WCI  31
LEXINGTON      PTCLDY    35  33  93 SE5       29.76F WCI  31
HOLDREGE       PTCLDY    39  37  92 S10       29.78F WCI  32
HEBRON         CLEAR     39  34  82 S7        29.86F WCI  34

...NEBRASKA PANHANDLE...

CITY           SKY/WX    TMP DP  RH WIND       PRES   REMARKS
CHADRON        CLOUDY    21  17  84 S3        29.60F
ALLIANCE       CLOUDY    22  20  92 SE3       29.64F
SCOTTSBLUFF    CLOUDY    27  21  78 N6        29.65F WCI  20
SIDNEY         CLOUDY    26  22  84 W12       29.68S WCI  16

...WESTERN AND NORTH CENTRAL NEBRASKA...

CITY           SKY/WX    TMP DP  RH WIND       PRES   REMARKS
VALENTINE      CLOUDY    31  24  75 S7        29.65F WCI  24
AINSWORTH      CLEAR     34  32  92 S13       29.68F WCI  25
ONEILL         CLEAR     37  36  94 S8        29.74S WCI  31
BROKEN BOW     CLEAR     38  35  89 S10       29.74F WCI  31
IMPERIAL       CLOUDY    29  25  85 SE6       29.72F WCI  23
NORTH PLATTE   CLEAR     27  25  92 CALM      29.73F
MCCOOK         FOG       31  31 100 SE6       29.75F VSB 1/2 WCI  25

...EASTERN NEBRASKA...

CITY           SKY/WX    TMP DP  RH WIND       PRES   REMARKS
NORFOLK        CLEAR     38  34  85 S14       29.80F WCI  30
SO SIOUX CITY  CLEAR     36  33  89 E7        29.84R WCI  30
TEKAMAH        CLEAR     35  32  88 SE9       29.86F WCI  28
COLUMBUS       CLEAR     39  34  81 S13       29.83S WCI  32
ALBION         CLEAR     37  34  92 SE8       29.80S WCI  30
OMAHA EPPLEY   CLEAR     38  33  82 S13       29.88F WCI  30
OFFUTT AFB     CLEAR     36  36 100 SE7       29.88F WCI  31
MILLARD        CLEAR     37  34  89 SE6       29.88F WCI  32
LINCOLN        CLEAR     39  32  76 S13       29.88S WCI  31
NEBRASKA CITY  PTCLDY    35  35 100 S10       29.90F WCI  27
BEATRICE       CLEAR     38  32  79 SE9       29.88S WCI  31
FALLS CITY     CLOUDY    38  35  89 S5        29.93S WCI  34

...NORTHERN KANSAS...

CITY           SKY/WX    TMP DP  RH WIND       PRES   REMARKS
GOODLAND       CLOUDY    36  29  75 S9        29.71F WCI  29
HILL CITY      CLOUDY    40  39  97 S7        29.78F
NORTON         CLOUDY    37  34  87 SE7       29.76F WCI  32
PHILLIPSBURG   CLOUDY    43  43 100 SE7       29.80F
SMITH CENTER   CLEAR     34  34 100 E8        29.82S WCI  27
HAYS           CLEAR     37  37 100 SE10      29.81F WCI  30
RUSSELL        CLEAR     41  38  89 S14       29.80F
CONCORDIA      CLOUDY    42  39  89 S12       29.85F
SALINA         CLEAR     41  36  82 S12       29.87F
TOPEKA         CLOUDY    40  36  86 E3        29.94F



USA.gov is the U.S. government's official web portal to all federal, state and local government web resources and services.